Weather in Dvurechensk

Russia / Sverdlovsk Oblast     56°35′45″N   61°05′39″E
temp.,
°C
wind,
m/s
gust,
m/s
humid.,
%
clouds,
%
prec.,
mm/h
press.,
hPa
HPBL,
m
25 july, sun
sun2523:00+17nw225696 0.0 100643
02:00+15nw267127 0.0 1007125
05:00+12nw279396 0.0 1008161
08:00+13nnw4795100 0.8 1010602
11:00+15nnw567369 1.4 10121063
14:00+19nnw464163 0.0 10132127
17:00+20nnw46314 0.0 10142432
20:00+16nnw37505 0.0 1016257
26 july, mon
mon2623:00+10wnw37605 0.0 1018132
02:00+8wnw247420 0.0 101965
05:00+8w2470100 0.0 101978
08:00+12wnw3861100 0.0 1019468
11:00+17nw4735100 0.0 10192460
14:00+17wnw4641100 0.0 10182095
17:00+17wnw364276 0.0 10171581
20:00+15w375693 0.0 1017301
27 july, tue
tue2723:00+13w396363 0.0 1017387
02:00+10wsw3108470 0.0 1016209
05:00+13wsw4116671 0.0 1015407
08:00+15w5115998 0.0 1014576
11:00+16w51264100 0.1 10121161
14:00+19wnw585248 0.1 10111695
17:00+20wnw575172 0.2 10101876
20:00+16nw3770100 0.3 1010468
28 july, wed
wed2823:00+10wnw269486 0.3 1011107
02:00+11nw377974 0.0 1011359
05:00+6wnw38965 0.0 1012158
08:00+12wnw496149 0.0 1011616
11:00+16wnw6104893 0.2 10101986
14:00+14wnw6106192 0.2 10101500
17:00+15nw5105267 0.3 10101825
20:00+12nw49555 0.0 10121481
29 july, thu
thu2923:00+7w22705 0.0 101330
02:00+6wsw2481100 0.0 101280
05:00+8wsw2373100 0.0 101155
08:00+9sw2590100 0.9 1011123
11:00+12ssw258464 1.1 1009166
14:00+16nnw376715 0.1 1008292
17:00+18w495895 0.2 1008588
20:00+19wsw41062100 0.2 1007594